CDT,Max TemperatureF,Mean TemperatureF,Min TemperatureF,Max Dew PointF,MeanDew PointF,Min DewpointF,Max Humidity, Mean Humidity, Min Humidity, Max Sea Level PressureIn, Mean Sea Level PressureIn, Min Sea Level PressureIn, Max VisibilityMiles, Mean VisibilityMiles, Min VisibilityMiles, Max Wind SpeedMPH, Mean Wind SpeedMPH, Max Gust SpeedMPH,PrecipitationIn, CloudCover, Events, WindDirDegrees
2012-8-1,111,92,75,55,50,46,48,23,12,29.87,29.81,29.73,10,10,10,16,11,22,0.00,0,,202
2012-8-2,111,94,79,55,50,45,42,22,12,29.78,29.72,29.64,10,10,10,22,12,26,0.00,0,,198
2012-8-3,111,94,79,56,49,44,38,23,11,29.75,29.70,29.65,10,10,10,21,15,29,0.00,0,,191
2012-8-4,109,94,81,61,55,48,46,29,13,29.99,29.83,29.74,10,10,10,23,15,30,0.00,0,,192
2012-8-5,97,84,72,63,60,58,73,46,29,30.16,30.10,30.01,10,10,10,20,13,24,0.00,0,,40
2012-8-6,104,90,77,63,59,56,50,37,21,30.09,30.01,29.92,10,10,10,21,10,31,0.00,1,Thunderstorm,129
2012-8-7,105,89,73,70,58,44,88,39,13,30.12,29.92,29.82,10,10,8,22,10,31,0.00,1,Rain-Thunderstorm,229
2012-8-8,100,86,72,72,62,54,94,52,21,30.10,29.94,29.87,10,10,7,28,11,34,0.01,1,Rain,313
2012-8-9,104,88,73,64,56,48,73,37,17,29.95,29.91,29.87,10,10,10,17,10,25,0.00,0,,348
2012-8-10,93,78,63,57,49,42,67,38,18,30.08,29.99,29.94,10,10,10,15,9,21,0.00,0,,40
2012-8-11,98,84,72,50,46,43,44,29,16,30.01,29.92,29.81,10,10,10,25,11,28,0.00,0,,142
2012-8-12,102,88,75,57,51,45,53,31,15,29.96,29.87,29.81,10,10,10,21,14,29,0.00,0,,48
2012-8-13,97,81,66,56,51,48,57,36,20,30.08,30.00,29.92,10,10,10,14,7,,0.00,0,,31
2012-8-14,88,78,69,62,54,49,71,48,35,29.96,29.90,29.83,10,10,10,22,11,28,0.00,1,Rain,97
2012-8-15,97,82,68,68,65,58,96,61,27,29.91,29.83,29.75,10,9,4,21,11,29,0.00,1,,171
2012-8-16,93,84,75,68,64,54,67,50,35,30.07,29.94,29.84,10,10,10,18,10,17,0.00,2,Thunderstorm,196
2012-8-17,89,77,66,55,50,46,49,39,30,30.06,30.00,29.90,10,10,10,20,13,25,0.00,0,,64
2012-8-18,80,72,66,64,59,51,94,62,40,30.02,29.92,29.84,10,10,2,22,11,29,0.44,2,Rain-Thunderstorm,93
2012-8-19,88,76,64,63,50,41,90,48,20,30.02,29.97,29.94,10,10,10,21,10,28,0.00,2,,355
2012-8-20,89,72,57,58,46,43,75,40,21,30.05,29.99,29.88,10,10,10,14,7,16,0.03,4,Rain-Thunderstorm,69
2012-8-21,84,74,64,64,61,56,87,69,42,30.14,30.05,29.98,10,10,10,13,8,16,0.00,4,Rain,194
2012-8-22,86,72,60,64,62,58,100,77,44,30.15,30.06,29.96,10,6,0,20,9,26,0.00,3,Fog-Rain,179
2012-8-23,75,72,70,62,59,57,71,65,52,30.00,29.97,29.95,10,10,10,17,14,23,0.00,1,,167
2012-8-24,91,85,79,67,65,64,62,52,42,29.79,29.76,29.73,10,10,10,26,22,32,0.00,1,,163
2012-8-25,96,82,69,70,65,59,93,66,31,29.94,29.80,29.70,10,8,1,26,16,36,1.17,2,Rain-Thunderstorm,166
2012-8-26,91,80,69,69,67,64,90,70,42,30.02,29.96,29.87,10,10,10,9,6,,0.00,1,Thunderstorm,215
2012-8-27,95,82,70,69,65,57,93,63,31,30.11,30.06,30.01,10,10,9,15,7,22,0.00,0,,44
2012-8-28,93,78,64,63,55,42,90,53,18,30.11,30.04,29.97,10,10,10,17,9,24,0.00,0,,42
2012-8-29,95,77,61,57,50,45,81,43,18,30.02,29.95,29.88,10,10,10,17,7,23,0.00,0,,38
2012-8-30,96,78,62,58,50,43,70,41,17,29.94,29.89,29.81,10,10,10,17,6,25,0.00,0,,26
2012-8-31,98,84,70,57,53,48,59,39,19,29.95,29.90,29.86,10,10,10,12,6,16,0.00,0,,336